Location: Dal�� Lhota
(48.7500°N, 14.0167°E)
Time: 11:37:07
(UTC+00:00)

Courier 1B - All Passes

Search period start: 04 August 2021 00:00
Search period end: 14 August 2021 00:00
Orbit: 962 x 1209 km, 28.3° (Epoch: 03 August)

Date Brightness Start Highest point End Pass type
(mag) Time Alt. Az. Time Alt. Az. Time Alt. Az.
04 Aug - 17:59:21 10° SSW 18:03:31 15° S 18:07:38 10° SE daylight
04 Aug - 19:52:45 10° SW 19:56:17 14° S 19:59:48 10° SSE visible
05 Aug - 17:06:06 10° SSW 17:09:57 14° S 17:13:47 10° SE daylight
05 Aug - 18:58:41 10° SW 19:02:45 15° S 19:06:46 10° SSE daylight
06 Aug - 16:13:11 10° SSW 16:16:24 13° SSE 16:19:37 10° SE daylight
06 Aug - 18:04:55 10° SW 18:09:11 16° S 18:13:26 10° SSE daylight
06 Aug - 20:00:07 10° SSW 20:01:54 11° SSW 20:03:42 10° S visible
07 Aug - 15:20:57 10° S 15:22:53 11° SSE 15:24:48 10° SSE daylight
07 Aug - 17:11:20 10° SSW 17:15:36 16° S 17:19:53 10° SE daylight
07 Aug - 19:05:14 10° SW 19:08:23 13° SSW 19:11:32 10° S visible
08 Aug - 16:18:01 10° SSW 16:22:03 15° S 16:26:06 10° SE daylight
08 Aug - 18:11:02 10° SW 18:14:50 14° S 18:18:38 10° SSE daylight
09 Aug - 15:24:58 10° SSW 15:28:30 14° S 15:32:04 10° SE daylight
09 Aug - 17:17:11 10° SW 17:21:16 15° S 17:25:23 10° SSE daylight
10 Aug - 14:32:21 10° S 14:34:59 12° SSE 14:37:38 10° SE daylight
10 Aug - 16:23:34 10° SSW 16:27:43 15° S 16:31:54 10° SSE daylight
10 Aug - 18:18:10 10° SSW 18:20:28 11° SSW 18:22:45 10° S daylight
11 Aug - 15:30:11 10° SSW 15:34:10 15° S 15:38:12 10° SE daylight
11 Aug - 17:23:42 10° SW 17:26:55 13° SSW 17:30:12 10° SSE daylight
12 Aug - 14:37:03 10° SSW 14:40:38 14° S 14:44:17 10° SE daylight
12 Aug - 16:29:43 10° SW 16:33:23 14° S 16:37:06 10° SSE daylight
13 Aug - 13:44:16 10° S 13:47:08 13° SSE 13:50:03 10° SE daylight
13 Aug - 15:36:02 10° SW 15:39:51 15° S 15:43:44 10° SSE daylight
